Regional Weather Roundup
Issued by NWS

Home | Current Version | Previous Version | Graphics & Text | Print | Product List | Glossary On
Versions: 1 2 3 4 5 6 7 8 9 10 11 12 13 14 15 16 17 18 19 20 21 22 23 24 25 26 27 28 29 30 31 32 33 34 35 36 37 38 39 40 41 42 43 44 45 46 47 48 49 50
000
ASUS43 KLSX 232259
RWRMO

WEATHER SUMMARY FOR MISSOURI
NATIONAL WEATHER SERVICE SPRINGFIELD MO
600 PM CDT SUN JUL 23 2017

NOTE: "FAIR" INDICATES FEW OR NO CLOUDS BELOW 12,000 FEET WITH NO
       SIGNIFICANT WEATHER AND/OR OBSTRUCTIONS TO VISIBILITY.
       CURRENT SKY AND/OR WEATHER CONDITIONS ARE NOT AVAILABLE FOR
       CHILLICOTHE AND FARMINGTON.

MOZ001>031-035>038-043-044-053-054-240000-
...NORTHERN AND WESTERN MISSOURI...

CITY           SKY/WX    TMP DP  RH WIND       PRES   REMARKS
KANSAS CTY INT MOSUNNY   91  74  57 W7        29.89F HX 100
KANSAS C DTWN  MOSUNNY   92  74  55 NW7       29.87S HX 101
LEE`S SUMMIT   PTSUNNY   91  74  57 NW6       29.90S HX 100
ST JOSEPH      SUNNY     89  75  63 N8        29.89S HX  99
CHILLICOTHE      N/A     92  74  55 CALM      29.88S HX 101
KIRKSVILLE     PTSUNNY   91  69  48 W8        29.86F HX  96

$$
MOZ066>068-077>081-088>096-101>105-240000-
...SOUTHWEST MISSOURI...

CITY           SKY/WX    TMP DP  RH WIND       PRES   REMARKS
SPRINGFIELD    MOSUNNY   92  66  42 N6        29.91F HX  94
JOPLIN         SUNNY     94  67  41 VRB7      29.89F HX  97
BRANSON        PTSUNNY   84  66  54 N5        29.92F

$$
MOZ032>034-039>042-045>050-055>058-069>072-240000-
...CENTRAL MISSOURI...

CITY           SKY/WX    TMP DP  RH WIND       PRES   REMARKS
COLUMBIA       SUNNY     89  70  53 W8        29.89R HX  94
JEFFERSON CITY SUNNY     90  71  53 NW7       29.86S HX  96
ROLLA          MOSUNNY   86  71  60 S6        29.90S HX  91
SEDALIA        SUNNY     89  73  59 NW5       29.91R HX  97
OSAGE BEACH    MOSUNNY   93  62  35 NW3       29.89F HX  93

$$
MOZ051-052-059>065-240000-
...EAST CENTRAL MISSOURI...

CITY           SKY/WX    TMP DP  RH WIND       PRES   REMARKS
ST LOUIS INTL  MOSUNNY   93  57  29 SW6       29.86R HX  91
SPIRIT OF STL  SUNNY     90  69  50 W8        29.85R HX  94
ST CHARLES     MOSUNNY   90  68  48 W3        29.84R HX  94

$$
MOZ072>076-082>087-097>100-106>115-240000-
...SOUTH CENTRAL AND SOUTHEAST MISSOURI...

CITY           SKY/WX    TMP DP  RH WIND       PRES   REMARKS
CAPE GIRARDEAU MOSUNNY   90  69  50 W5        29.83S HX  94
FARMINGTON     MOSUNNY   89  67  47 VRB3      29.89S HX  92
POPLAR BLUFF   MOSUNNY   92  73  53 N3        29.83F HX 100
WEST PLAINS    CLOUDY    86  66  51 N7        29.91F

$$




USA.gov is the U.S. government's official web portal to all federal, state and local government web resources and services.